SCP
0 0 0 0 0 0 0 0 0 0 0 0 0 0 0 0 0 0 0 0 0 0 0 0 0 0 0 1 1 1 1 0 0 0 0 0 0 0 0 0 0 0 0 0 0 0 0 0 0
0 0 0 0 0 0 0 0 0 0 0 0 0 0 0 0 0 0 0 0 0 0 0 0 1 1 1 1 1 1 1 0 0 0 0 0 0 0 0 0 0 0 0 0 0 0 0 0 0
0 0 0 0 0 0 0 0 0 0 0 0 0 0 0 0 0 0 0 0 0 0 0 0 1 1 1 1 1 1 1 1 0 0 0 0 0 0 0 0 0 0 0 0 0 0 0 0 0
0 0 0 0 0 0 0 0 0 0 0 0 0 0 0 0 0 0 0 1 0 0 0 1 1 1 1 1 1 1 1 1 0 0 0 0 0 0 0 0 0 0 0 0 0 0 0 0 0
0 0 0 0 0 0 0 0 0 0 0 0 0 0 0 0 0 0 1 1 1 1 1 1 1 1 1 1 1 1 1 1 1 0 0 0 0 0 0 0 0 0 0 0 0 0 0 0 0
0 0 0 0 0 0 0 0 0 0 0 0 0 0 0 0 0 1 1 1 1 1 1 1 1 1 1 1 1 1 1 1 1 0 0 0 0 0 0 0 0 0 0 0 0 0 0 0 0
0 0 0 0 0 0 0 0 0 0 0 0 0 0 0 0 0 1 1 1 1 1 1 1 1 1 1 1 1 1 1 1 0 0 0 0 0 0 0 0 0 0 0 0 0 0 0 0 0
0 0 0 0 0 0 0 0 0 0 0 0 0 0 0 0 0 1 1 1 1 1 1 1 1 1 0 0 0 0 0 0 0 0 0 0 0 0 0 0 0 0 0 0 0 0 0 0 0
0 0 0 0 0 0 0 0 0 0 0 0 0 0 0 1 1 1 1 1 1 1 1 1 1 1 0 0 0 0 0 0 0 0 0 0 0 0 0 0 0 0 0 0 0 0 0 0 0
0 0 0 0 0 0 0 0 0 0 0 0 0 0 1 1 1 1 1 1 1 1 1 1 1 1 0 0 0 0 0 0 0 0 0 0 0 0 0 0 0 0 0 0 0 0 0 0 0
0 0 0 0 0 0 0 0 0 0 0 0 0 0 1 1 1 1 1 1 1 1 1 1 1 1 1 0 0 0 0 0 0 0 0 0 0 0 0 0 0 0 0 0 0 0 0 0 0
0 0 0 0 0 0 0 0 0 0 0 0 0 0 1 1 1 1 1 1 1 1 2 1 1 1 1 0 0 0 0 0 0 0 0 0 0 0 0 0 0 0 0 0 0 0 0 0 0
0 0 0 0 0 0 0 0 0 0 0 0 0 1 1 1 1 1 1 1 1 2 2 2 1 1 1 1 0 0 0 0 0 0 0 0 0 0 0 0 0 0 0 0 0 0 0 0 0
0 0 0 0 0 0 0 0 0 0 0 0 0 1 1 1 1 1 1 1 1 1 2 2 2 2 1 1 1 0 0 0 0 0 0 0 0 0 0 0 0 0 0 0 0 0 0 0 0
0 0 0 0 0 0 0 0 0 0 0 0 0 0 1 1 1 1 1 0 1 1 2 2 2 2 2 2 1 1 0 0 0 0 0 0 0 0 0 0 0 0 0 0 0 0 0 0 0
0 0 0 0 0 0 0 0 0 0 0 0 0 0 0 1 1 1 1 0 0 1 1 2 2 2 2 2 2 1 1 0 0 0 0 0 0 0 0 0 0 0 0 0 0 0 0 0 0
0 0 0 0 0 0 0 0 0 0 0 0 0 0 0 0 1 1 1 1 0 1 1 1 2 2 2 2 2 2 1 1 0 0 0 0 0 0 0 0 0 0 0 0 0 0 0 0 0
0 0 0 0 0 0 0 0 0 0 0 0 0 0 0 0 0 1 1 1 1 1 1 1 1 2 2 3 3 2 2 1 1 1 0 0 0 0 0 0 0 0 0 0 0 0 0 0 0
0 0 0 0 0 0 0 0 0 0 0 0 0 0 0 0 0 0 1 1 1 1 1 1 1 2 2 3 3 3 2 2 1 1 1 0 0 0 0 0 0 0 0 0 0 0 0 0 0
0 0 0 0 0 0 0 0 0 0 0 0 0 0 0 0 0 0 0 1 1 1 1 1 1 1 2 3 3 3 2 2 2 1 1 1 0 0 0 0 0 0 0 0 0 0 0 0 0
0 0 0 0 0 0 0 0 0 0 0 0 0 0 0 0 0 0 0 1 1 1 1 1 1 1 2 2 3 3 3 2 2 1 1 1 1 0 0 0 0 0 0 0 0 0 0 0 0
0 0 0 0 0 0 0 0 0 0 0 0 0 0 0 0 0 0 0 1 1 1 1 1 1 1 1 2 2 3 2 2 2 1 1 1 1 1 0 0 0 0 0 0 0 0 0 0 0
0 0 0 0 0 0 0 0 0 0 0 0 0 0 0 0 0 0 0 0 1 1 1 1 1 1 1 1 2 2 2 2 2 1 1 1 1 1 0 0 0 0 0 0 0 0 0 0 0
0 0 0 0 0 0 0 0 0 0 0 0 0 0 0 0 0 0 0 0 1 1 2 2 1 1 1 1 1 1 2 2 1 1 1 1 1 1 0 0 0 0 0 0 0 0 0 0 0
0 0 0 0 0 0 0 0 0 0 0 0 0 0 0 0 0 0 0 0 1 1 2 2 2 1 1 1 1 1 1 1 1 1 1 1 1 1 0 0 0 0 0 0 0 0 0 0 0
0 0 0 0 0 0 0 0 0 0 0 0 0 0 0 0 0 0 0 0 1 1 2 2 2 1 1 1 1 1 1 1 1 1 1 1 1 0 0 0 0 0 0 0 0 0 0 0 0
0 0 0 0 0 0 0 0 0 0 0 0 0 0 0 0 0 0 0 0 0 1 2 2 2 2 1 1 1 1 1 1 1 1 1 1 0 0 0 0 0 0 0 0 0 0 0 0 0
1 1 1 0 0 0 0 0 0 0 0 0 0 0 0 0 0 0 0 0 0 0 1 1 2 1 1 1 1 1 1 1 1 1 1 1 0 0 0 0 0 0 0 0 0 0 0 0 0
0 1 1 1 0 0 0 0 0 0 0 0 0 0 0 0 0 0 0 0 0 0 0 1 1 1 1 1 1 1 1 1 1 1 1 1 1 0 0 0 1 1 1 1 1 1 1 0 0
0 0 1 1 0 0 0 0 0 0 0 0 0 0 0 0 0 0 0 0 0 0 0 0 1 1 1 1 1 1 1 1 1 1 1 1 1 1 1 1 1 1 1 1 1 1 1 1 1
Wind_Speed
13 7 2 4 6 4 2 4 3 1 1 1 4 8 7 4 4 3 3 11 14 14 12 14 15 16 16 15 14 14 14 14 14 14 14 14 14 14 14 14 13 14 14 14 14 14 13 12 12
7 3 4 5 4 1 4 4 3 3 4 3 4 6 6 2 2 6 6 11 16 14 12 13 15 16 16 15 14 14 14 14 14 14 14 13 13 13 13 13 13 13 13 13 13 13 12 11 10
6 1 3 4 3 6 5 3 4 2 2 3 4 4 5 5 5 6 8 15 15 13 11 12 15 16 17 16 15 14 14 13 14 14 14 13 13 13 12 12 12 12 12 12 12 11 10 9 8
3 4 4 3 5 6 6 5 3 3 1 2 5 4 2 2 6 7 14 16 15 12 11 13 16 16 17 16 15 14 14 13 13 13 13 13 13 12 11 11 11 11 11 11 11 10 9 8 7
4 4 2 2 5 5 4 5 4 4 4 2 4 5 1 2 6 14 16 16 15 12 10 12 15 15 16 16 15 14 14 13 13 13 13 12 12 11 11 10 10 10 10 10 9 9 7 6 6
4 4 2 5 6 4 4 4 3 3 3 3 5 5 2 2 10 14 14 14 14 13 11 11 13 14 14 14 14 13 13 12 12 12 12 12 12 11 10 10 10 10 9 9 8 7 6 5 4
3 3 4 5 5 5 5 3 4 4 4 5 7 7 3 3 7 10 11 12 12 12 11 9 9 11 12 13 12 12 12 11 11 12 11 10 10 10 9 9 9 9 9 8 8 6 5 4 2
3 3 3 4 5 6 3 1 2 4 4 3 6 10 7 8 8 9 10 10 10 10 10 10 9 8 8 9 11 12 12 11 11 11 10 10 9 9 8 7 8 8 8 8 7 6 5 3 1
2 2 5 5 5 5 2 1 2 1 2 2 1 6 7 12 11 11 9 8 9 10 10 10 10 8 8 7 10 10 11 11 10 9 11 9 5 5 5 6 7 8 7 7 7 6 5 3 2
3 4 7 4 3 3 3 2 2 1 1 1 3 3 7 13 13 13 13 14 14 14 12 10 10 10 9 8 7 5 6 6 6 5 6 5 4 4 5 7 8 8 7 7 7 6 5 3 1
3 5 4 4 3 2 3 3 2 2 3 5 6 7 10 11 12 13 13 13 14 14 13 12 11 10 10 6 6 4 4 4 5 7 7 5 4 3 3 3 4 4 5 3 4 3 2 2 2
3 4 3 3 4 3 3 3 3 4 7 5 7 12 13 14 15 15 14 12 11 12 13 12 12 11 10 8 7 6 5 5 5 6 7 5 4 4 4 3 4 3 3 3 3 2 3 4 4
4 4 4 5 5 4 4 4 4 7 7 3 4 9 13 14 14 13 11 10 10 13 13 13 13 12 11 9 7 8 7 7 7 6 7 7 5 5 5 4 4 4 3 4 4 4 4 4 4
4 4 5 5 5 4 4 7 4 8 4 2 5 10 12 13 13 10 9 10 11 13 13 13 14 13 12 10 8 8 7 7 7 7 8 9 7 6 5 5 5 5 5 4 4 5 4 4 4
2 4 6 5 4 4 2 8 9 8 4 5 7 8 10 11 10 11 12 13 13 12 12 13 14 13 13 12 11 8 7 7 7 7 8 9 8 7 6 5 5 5 5 5 4 5 4 4 4
2 2 4 4 3 3 4 13 9 5 5 9 8 7 8 10 11 12 12 11 11 10 11 13 12 13 13 12 11 8 8 8 8 7 8 10 10 9 7 6 6 5 5 4 4 4 4 4 4
2 4 5 5 4 3 6 10 6 5 6 9 8 8 8 9 9 10 11 12 12 12 12 13 13 13 13 12 9 8 8 8 7 7 7 9 10 10 8 7 6 6 5 5 5 4 4 4 4
5 5 5 6 4 4 8 12 9 7 7 8 8 8 8 9 10 10 10 11 11 11 12 12 13 13 11 9 7 6 7 8 7 8 8 9 9 10 9 6 7 7 5 5 5 5 4 4 3
4 5 8 8 5 6 11 13 11 9 8 9 9 8 8 9 9 8 8 9 8 9 11 12 12 13 10 8 9 9 10 9 8 8 9 10 9 10 9 7 7 7 7 7 7 5 5 5 2
7 9 9 8 5 5 9 14 11 10 11 11 12 11 10 9 8 7 7 7 8 10 11 11 13 12 12 11 10 7 7 6 6 5 7 9 10 10 9 9 8 7 7 7 8 6 4 4 4
10 10 9 8 7 6 7 12 10 9 10 10 10 11 10 11 10 9 7 8 8 8 10 10 12 12 12 11 6 4 4 3 5 7 8 9 10 9 9 9 8 7 8 8 8 8 8 6 5
12 7 7 8 5 5 4 9 8 7 9 10 11 10 10 10 10 8 7 7 8 9 8 9 10 11 10 10 9 10 10 10 10 8 7 7 9 9 10 9 9 8 7 8 8 8 7 7 6
6 3 5 6 6 8 6 9 10 5 9 10 10 10 10 10 9 9 8 8 8 8 7 8 8 8 9 9 10 11 11 9 6 5 6 7 7 9 10 10 9 9 8 9 8 8 8 7 7
3 2 4 3 3 10 11 9 10 6 9 7 8 9 9 8 8 7 6 5 5 4 4 5 6 6 6 8 9 11 12 10 7 7 8 7 6 7 9 9 9 10 9 9 9 9 9 8 8
3 2 2 3 5 10 6 9 11 6 7 7 7 7 7 6 6 5 4 4 3 3 3 4 5 5 5 6 7 9 10 11 11 10 9 8 7 7 9 9 9 9 9 9 8 9 9 9 8
6 7 6 6 6 5 4 10 8 4 3 3 3 3 2 3 2 1 1 1 2 2 3 3 4 5 5 6 7 7 8 7 7 8 7 8 7 8 7 9 9 9 9 9 9 8 9 8 9
4 6 6 4 4 5 7 7 7 3 3 2 3 3 3 3 2 2 1 1 1 0 1 2 3 3 4 5 5 5 6 6 6 6 7 5 6 5 7 8 9 9 9 9 9 8 9 8 9
6 4 2 5 5 7 7 6 5 3 4 3 3 3 4 4 4 3 2 2 1 1 1 0 1 3 3 3 3 3 4 5 6 5 6 6 6 6 6 8 9 9 9 9 9 8 8 9 8
3 4 4 4 4 5 6 7 4 5 4 4 4 4 3 3 3 3 3 2 2 2 2 2 1 1 1 1 2 2 2 3 3 4 5 5 5 6 6 7 8 9 9 8 8 9 8 10 9
7 6 6 5 6 5 7 10 3 4 3 3 5 5 4 3 3 3 3 3 3 3 3 2 2 1 1 1 1 2 2 2 3 4 4 4 4 4 5 5 6 7 8 8 8 9 9 10 10
Wind_Direction
326 324 25 55 53 50 250 243 198 191 117 151 109 105 113 121 156 167 130 138 136 146 152 151 150 148 145 143 140 140 137 135 131 127 123 120 118 116 113 112 110 108 106 103 101 98 95 93 90
316 326 45 60 91 155 261 243 190 202 176 143 96 97 94 96 109 120 128 146 143 147 150 151 149 149 148 146 144 141 140 138 136 133 128 125 123 120 118 116 114 111 110 108 104 102 99 94 87
318 11 77 80 148 191 220 221 182 194 166 120 87 80 125 153 147 153 156 147 142 146 150 151 149 151 150 149 147 145 143 142 140 137 135 131 128 125 123 122 118 116 114 111 109 106 103 96 86
11 33 57 94 232 224 203 210 174 148 103 92 109 88 95 167 166 155 144 144 142 147 150 154 153 153 153 153 151 149 147 146 144 142 139 136 133 130 128 126 123 121 120 118 115 113 108 98 86
48 72 70 244 246 252 227 213 179 170 177 156 121 123 121 337 134 136 144 146 146 148 151 158 156 156 156 157 156 154 152 150 148 147 144 142 140 138 135 132 129 128 126 125 123 119 113 103 87
45 74 147 231 244 255 246 223 173 183 200 169 129 131 175 136 135 146 149 148 148 150 152 158 157 156 157 159 159 159 157 155 153 152 150 149 148 146 145 142 138 137 136 132 131 128 123 112 96
113 124 205 219 231 244 241 224 179 185 198 194 148 131 157 176 156 146 144 143 145 150 153 157 159 159 160 160 161 160 159 157 156 156 154 153 152 149 146 147 149 149 147 144 142 141 140 133 113
141 129 225 221 218 236 249 243 200 176 211 192 136 147 181 194 159 137 136 140 146 152 158 160 162 161 161 163 164 162 161 159 157 156 155 155 154 152 151 151 156 159 159 158 158 161 166 169 174
102 134 222 217 210 230 251 288 313 270 125 58 96 173 184 152 143 136 139 146 157 163 167 166 167 166 164 164 169 166 164 164 160 159 160 157 156 154 156 164 167 168 167 170 175 180 186 193 229
126 197 226 223 216 237 269 244 268 2 23 49 29 46 127 144 154 158 165 169 173 176 176 174 174 173 170 172 166 167 169 168 165 164 165 163 162 169 171 177 179 178 178 183 190 198 201 205 243
191 212 241 265 274 278 282 280 280 167 234 206 183 166 152 160 168 175 179 180 181 178 178 179 179 177 176 174 169 172 170 170 173 174 175 170 168 175 177 173 184 186 185 189 205 209 209 215 226
258 261 270 286 310 300 275 284 289 228 230 235 191 167 166 174 182 187 187 186 179 179 184 182 181 180 182 177 177 177 177 179 183 185 182 175 176 182 182 183 184 186 185 191 203 211 220 230 236
254 276 294 289 294 283 279 264 265 263 259 246 174 168 179 187 193 198 195 187 182 186 187 185 183 184 183 181 184 184 186 187 188 188 190 184 184 188 188 190 190 192 189 194 203 214 222 230 238
259 285 291 287 287 282 262 274 253 255 262 212 184 188 194 198 200 198 195 196 194 194 192 187 187 187 184 186 188 188 189 190 189 192 194 191 190 191 191 192 194 198 196 198 201 209 216 224 228
284 294 296 266 245 250 264 273 244 246 252 243 225 212 208 210 206 206 204 203 201 199 194 192 191 188 188 189 191 190 191 190 193 195 195 195 194 193 193 194 198 201 197 197 202 212 216 226 229
284 260 264 265 227 225 197 252 258 254 231 243 239 229 222 220 214 214 211 209 206 200 196 197 194 192 193 193 192 192 192 193 196 195 196 198 198 195 194 198 203 198 194 198 203 206 213 226 230
237 233 242 270 239 225 215 251 263 254 232 244 244 233 228 227 226 224 218 213 208 203 199 198 197 195 197 196 194 193 192 196 198 196 199 200 200 198 197 203 203 194 197 202 206 208 205 221 231
215 229 243 241 253 245 249 258 270 275 257 251 249 245 238 232 231 225 221 218 211 206 202 200 199 198 196 194 193 194 198 202 201 202 204 202 202 200 199 204 203 195 199 206 208 211 212 217 223
235 244 257 260 264 252 254 262 264 261 259 256 255 252 248 247 242 231 225 222 213 206 202 201 200 200 192 192 195 199 206 205 204 207 206 205 206 204 204 207 205 201 206 209 206 205 213 222 197
251 259 266 284 276 263 268 268 265 253 248 242 244 249 249 253 258 244 226 218 210 207 205 204 203 200 197 200 201 201 200 203 205 205 208 208 208 207 207 208 209 206 210 212 209 206 208 213 188
244 242 249 264 298 289 287 282 259 253 247 249 244 240 242 239 244 245 228 219 212 210 209 207 206 203 201 200 191 181 175 181 200 209 213 213 210 208 208 208 208 209 209 216 214 209 209 217 210
250 237 245 255 263 268 238 278 267 248 252 248 247 243 243 245 243 242 233 220 215 215 212 210 205 203 202 196 191 190 198 206 211 211 211 206 204 207 210 208 208 211 214 218 218 214 215 213 220
241 244 241 244 242 262 243 258 271 242 246 246 242 239 240 240 240 239 234 225 218 213 208 209 207 204 199 196 198 199 209 216 214 204 204 207 207 210 211 211 211 214 216 219 217 215 215 217 220
231 299 286 252 225 249 230 228 266 221 230 242 241 238 240 240 237 237 235 227 222 212 205 202 200 208 203 197 200 203 209 211 206 204 208 211 213 214 214 213 214 216 217 219 219 218 217 219 221
190 181 254 246 226 243 211 220 251 231 232 231 239 245 246 249 247 244 236 219 213 197 200 197 191 200 201 197 202 207 212 213 214 213 212 211 214 216 217 214 217 219 220 219 216 217 221 221 221
211 191 205 221 228 260 217 232 253 251 249 249 252 260 270 280 271 252 246 230 225 193 186 190 195 205 202 202 210 209 209 213 219 219 218 216 217 218 215 213 217 219 219 219 217 218 221 221 223
208 215 219 238 258 258 243 256 285 305 323 322 326 340 327 313 306 290 287 325 347 280 182 185 204 216 216 210 213 215 213 212 216 216 217 220 223 217 213 212 215 219 219 218 215 220 221 219 222
208 197 197 210 224 244 258 248 246 281 288 293 305 310 311 318 329 334 345 355 3 1 320 233 183 213 223 216 215 218 223 221 219 215 216 218 219 218 218 217 214 216 218 217 216 220 220 220 224
229 219 219 225 219 222 257 258 224 225 238 253 270 281 293 308 326 342 346 350 11 19 21 9 12 356 308 252 231 224 231 227 218 219 224 224 222 218 220 223 219 215 217 217 217 221 218 221 225
230 222 213 228 249 237 250 262 257 257 266 268 283 291 299 305 324 342 344 347 358 2 8 6 346 336 328 316 270 236 234 231 222 224 229 228 227 223 223 223 226 223 217 214 215 221 220 221 224